This demonstration page uses our WeatherBlox Daily Observations layout. Learn more.

Left ArrowRight Arrow

Hourly Observations for December 21, 2015

Temp ( °F °C ) Dew Point ( °F °C ) Humidity (%) Winds ( mph kmh ) Pressure ( in mb ) Visibility ( mi km ) Precip ( " mm )
12:51 am 00:51 Clear 39 3.9 33 0.6 79 79 Calm 30.08 1019 10 16 0.00 0.00
1:51 am 01:51 Clear 37 2.8 32 0 82 82 E 6 9 30.06 1018 10 16 0.00 0.00
2:51 am 02:51 Clear 35 1.7 32 0 89 89 E 6 9 30.09 1019 10 16 0.00 0.00
3:51 am 03:51 Clear 34 1.1 31 -0.6 89 89 SE 5 7 30.10 1019 10 16 0.00 0.00
4:51 am 04:51 Clear 31 -0.6 29 -1.7 92 92 Calm 30.13 1020 10 16 0.00 0.00
5:51 am 05:51 Clear 30 -1.1 28 -2.2 92 92 E 3 6 30.14 1021 10 16 0.00 0.00
6:51 am 06:51 Clear 30 -1.1 28 -2.2 92 92 E 5 7 30.17 1022 10 16 0.00 0.00
7:51 am 07:51 Sunny 32 0 30 -1.1 92 92 E 6 9 30.19 1022 10 16 0.00 0.00
8:39 am 08:39 Hazy 38 3.3 33 0.6 83 83 SSE 7 11 30.27 1025 2 3 0.00 0.00
8:51 am 08:51 Sunny 39 3.9 33 0.6 79 79 SE 8 13 30.18 1022 10 16 0.00 0.00
9:51 am 09:51 Sunny 43 6.1 33 0.6 68 68 SE 5 7 30.18 1022 10 16 0.00 0.00
10:51 am 10:51 Sunny 48 8.9 34 1.1 58 58 S 5 7 30.16 1021 10 16 0.00 0.00
11:51 am 11:51 Sunny 52 11.1 33 0.6 49 49 SE 3 6 30.11 1020 10 16 0.00 0.00
12:51 pm 12:51 Sunny 56 13.3 32 0 40 40 Calm 30.07 1018 10 16 0.00 0.00
1:51 pm 13:51 Sunny 58 14.4 30 -1.1 35 35 VRB 3 6 30.02 1017 10 16 0.00 0.00
2:51 pm 14:51 Sunny 59 15 27 -2.8 29 29 Calm 30.00 1016 10 16 0.00 0.00
3:51 pm 15:51 Sunny 60 15.6 25 -3.9 26 26 Calm 29.98 1015 10 16 0.00 0.00
4:51 pm 16:51 Sunny 58 14.4 23 -5 26 26 Calm 29.98 1015 10 16 0.00 0.00
5:51 pm 17:51 Clear 52 11.1 29 -1.7 41 41 NW 6 9 30.01 1016 10 16 0.00 0.00
6:51 pm 18:51 Clear 47 8.3 28 -2.2 48 48 N 3 6 30.01 1016 10 16 0.00 0.00
7:51 pm 19:51 Clear 44 6.7 28 -2.2 53 53 Calm 29.99 1016 10 16 0.00 0.00
8:51 pm 20:51 Clear 44 6.7 28 -2.2 53 53 SE 6 9 29.96 1015 10 16 0.00 0.00
9:51 pm 21:51 Clear 43 6.1 28 -2.2 56 56 SE 8 13 29.95 1014 10 16 0.00 0.00
10:51 pm 22:51 Clear 42 5.6 27 -2.8 55 55 S 3 6 29.93 1014 10 16 0.00 0.00
11:51 pm 23:51 Clear 39 3.9 27 -2.8 62 62 NW 8 13 29.94 1014 10 16 0.00 0.00

Powered by AerisWeather